Greenland, New Hampshire, United States (03840)
Lat: 43.04N, Lon: 70.83W
Wx Zone: NHZ014
Local Info
Past Weather Observations for Saturday, October 25, 2014

NOTE: This archive is for the closest National Weather Service station to Greenland. Information may differ from the station used for current weather conditions.

Click here for Long-term Archive

Time Weather Temperature Dewpoint Humidity Pressure Winds Precip Visibility
23:58
Overcast
54°F / 12°C 45°F / 7°C 72% 29.44 in
(997 mb)
SW 5.8 mph
(SW 9 kph)
- 10SM
22:58
Overcast
54°F / 12°C 45°F / 7°C 72% 29.44 in
(997 mb)
Variable 3.5 mph
(Variable 6 kph)
- 10SM
21:58
Overcast
55°F / 13°C 45°F / 7°C 67% 29.5 in
(999 mb)
Calm - 10SM
20:58
Overcast
55°F / 13°C 45°F / 7°C 67% 29.5 in
(999 mb)
SW 2.3 mph
(SW 4 kph)
- 10SM
19:58
Overcast
55°F / 13°C 45°F / 7°C 67% 29.53 in
(1000 mb)
SW 3.5 mph
(SW 6 kph)
- 10SM
18:58
Mostly Cloudy
55°F / 13°C 41°F / 5°C 59% 29.53 in
(1000 mb)
SSW 2.3 mph
(SSW 4 kph)
- 10SM
17:58
Mostly Cloudy
57°F / 14°C 41°F / 5°C 55% 29.53 in
(1000 mb)
S 6.9 mph
(S 11 kph)
- 10SM
16:58
Mostly Cloudy
59°F / 15°C 39°F / 4°C 48% 29.56 in
(1001 mb)
SSW 5.8 mph
(SSW 9 kph)
- 10SM
15:58
Mostly Cloudy
64°F / 18°C 36°F / 2°C 34% 29.56 in
(1001 mb)
SW 2.3 mph
(SW 4 kph)
- 10SM
14:58
Partly Cloudy
64°F / 18°C 36°F / 2°C 34% 29.56 in
(1001 mb)
SSW 6.9 mph
(SSW 11 kph)
- 10SM
13:58
Mostly Cloudy
64°F / 18°C 36°F / 2°C 34% 29.59 in
(1002 mb)
SSW 4.6 mph
(SSW 7 kph)
- 10SM
12:58
Partly Cloudy
66°F / 19°C 37°F / 3°C 35% 29.59 in
(1002 mb)
W 10.4 mph
(W 17 kph)
- 10SM
11:58
Partly Cloudy
64°F / 18°C 39°F / 4°C 40% 29.62 in
(1003 mb)
SSW 11.5 mph
(SSW 19 kph)
- 10SM
10:58
Partly Cloudy
61°F / 16°C 41°F / 5°C 48% 29.65 in
(1004 mb)
SSW 11.5 mph
(SSW 19 kph)
- 10SM
09:58
Partly Cloudy
57°F / 14°C 41°F / 5°C 55% 29.68 in
(1005 mb)
SSW 11.5 mph
(SSW 19 kph)
- 10SM
08:58
Mostly Cloudy
54°F / 12°C 41°F / 5°C 63% 29.68 in
(1005 mb)
SSW 5.8 mph
(SSW 9 kph)
- 10SM
07:58
Mostly Cloudy
48°F / 9°C 39°F / 4°C 71% 29.71 in
(1006 mb)
SSW 8.1 mph
(SSW 13 kph)
- 10SM
06:58
Mostly Cloudy
48°F / 9°C 37°F / 3°C 66% 29.71 in
(1006 mb)
SSW 6.9 mph
(SSW 11 kph)
- 10SM
05:58
Mostly Cloudy
43°F / 6°C 37°F / 3°C 81% 29.71 in
(1006 mb)
SW 4.6 mph
(SW 7 kph)
- 10SM
04:58
Partly Cloudy
45°F / 7°C 39°F / 4°C 81% 29.71 in
(1006 mb)
S 1.2 mph
(S 2 kph)
- 10SM
03:58
Mostly Cloudy
46°F / 8°C 41°F / 5°C 82% 29.71 in
(1006 mb)
SSW 3.5 mph
(SSW 6 kph)
- 10SM
02:58
Mostly Cloudy
45°F / 7°C 41°F / 5°C 87% 29.71 in
(1006 mb)
SW 5.8 mph
(SW 9 kph)
- 10SM
01:58
Mostly Cloudy
46°F / 8°C 43°F / 6°C 87% 29.71 in
(1006 mb)
SSW 5.8 mph
(SSW 9 kph)
- 10SM
00:58
Mostly Cloudy
46°F / 8°C 43°F / 6°C 87% 29.71 in
(1006 mb)
W 6.9 mph
(W 11 kph)
- 10SM
Time Weather Temperature Dewpoint Humidity Pressure Winds Precip Visibility


Weather for websites

WeatherForYou.com, LLC is not responsible for any damages or problems caused by this service. Current weather conditions are obtained from the closest station including government and personal stations which may have varying degrees of accuracy. Weather forecasts are derived from the NOAA NDFD. Like all things, this site belongs to Jesus Christ... He just trusts me to maintain it. If you have any questions or comments email webmaster@weatherforyou.com

Copyright © 2014, WeatherForYou.com LLC. All rights reserved.